Location: Unspecified
(0.0000°N, 0.0000°E)
Time: 09:18:54
(UTC+00:00)

Vanguard 2 - Pass Details

Date: 21 December 2018
Orbit: 552 x 2939 km, 32.9° (Epoch: 17 January)

Event Time Altitude Azimuth Distance (km) Brightness Sun altitude
Rises 08:04:43 0° 231° (SW) 6,794 12.1 28.8°
Reaches altitude 10° 08:13:20 10° 209° (SSW) 5,676 12.0 30.7°
Maximum altitude 08:20:57 14° 182° (S) 5,040 12.1 32.4°
Drops below altitude 10° 08:27:45 10° 154° (SSE) 4,982 12.6 33.9°
Sets 08:34:12 0° 131° (SE) 5,473 12.9 35.3°
